• In Hungary
  • List of Countries
  • For 7 days
  • Water Temperature
  • Satellite Maps
  • Weather Map
  • News
  • Weather Widgets
  • user-avatar
    Login

    Hourly Weather Lubno

    Today, 18 June, Monday

    Time Temperature Precipitation Wind Pressure Humidity
    00:00 +20°C° 0 mm 1 mps 752 mmHg 71%
    01:00 +20°C° 0 mm 1 mps 751 mmHg 75%
    02:00 +19°C° 0 mm 1 mps 752 mmHg 77%
    03:00 +19°C° 0 mm 1 mps 752 mmHg 79%
    04:00 +19°C° 0 mm 1 mps 752 mmHg 81%
    05:00 +20°C° 0 mm 1 mps 752 mmHg 77%
    06:00 +22°C° 0 mm 1 mps 752 mmHg 72%
    07:00 +24°C° 0 mm 1 mps 753 mmHg 65%
    08:00 +24°C° 0.5 mm 1 mps 753 mmHg 62%
    09:00 +25°C° 0.5 mm 2 mps 753 mmHg 59%
    10:00 +26°C° 0.5 mm 2 mps 753 mmHg 57%
    11:00 +27°C° 0.3 mm 2 mps 753 mmHg 54%
    12:00 +27°C° 0.3 mm 2 mps 753 mmHg 52%
    13:00 +28°C° 0.3 mm 2 mps 753 mmHg 49%
    14:00 +28°C° 0.2 mm 2 mps 753 mmHg 51%
    15:00 +28°C° 0.2 mm 2 mps 753 mmHg 52%
    16:00 +28°C° 0.2 mm 2 mps 752 mmHg 53%
    17:00 +26°C° 0.5 mm 2 mps 752 mmHg 61%
    18:00 +25°C° 0.5 mm 3 mps 753 mmHg 68%
    19:00 +22°C° 0.5 mm 3 mps 753 mmHg 75%
    20:00 +21°C° 0 mm 3 mps 753 mmHg 79%
    21:00 +20°C° 0 mm 2 mps 753 mmHg 82%
    22:00 +19°C° 0 mm 2 mps 754 mmHg 86%
    23:00 +18°C° 0 mm 2 mps 754 mmHg 87%

    Tomorrow, 19 June, Tuesday

    Time Temperature Precipitation Wind Pressure Humidity
    00:00 +18°C° 0 mm 2 mps 754 mmHg 88%
    01:00 +17°C° 0 mm 2 mps 754 mmHg 90%
    02:00 +17°C° 0 mm 2 mps 754 mmHg 90%
    03:00 +17°C° 0 mm 2 mps 754 mmHg 90%
    04:00 +16°C° 0 mm 2 mps 754 mmHg 90%
    05:00 +18°C° 0 mm 2 mps 754 mmHg 84%
    06:00 +19°C° 0 mm 3 mps 755 mmHg 77%
    07:00 +21°C° 0 mm 3 mps 755 mmHg 71%
    08:00 +22°C° 0 mm 3 mps 755 mmHg 65%
    09:00 +23°C° 0 mm 4 mps 755 mmHg 58%
    10:00 +25°C° 0 mm 4 mps 755 mmHg 52%
    11:00 +26°C° 0 mm 4 mps 755 mmHg 52%
    12:00 +26°C° 0 mm 4 mps 755 mmHg 52%
    13:00 +27°C° 0 mm 5 mps 755 mmHg 52%
    14:00 +27°C° 0 mm 5 mps 755 mmHg 54%
    15:00 +26°C° 0 mm 5 mps 754 mmHg 56%
    16:00 +26°C° 0 mm 5 mps 754 mmHg 58%
    17:00 +25°C° 0 mm 4 mps 755 mmHg 63%
    18:00 +24°C° 0 mm 3 mps 755 mmHg 68%
    19:00 +23°C° 0 mm 2 mps 755 mmHg 73%
    20:00 +21°C° 0 mm 2 mps 755 mmHg 76%
    21:00 +20°C° 0 mm 2 mps 755 mmHg 79%
    22:00 +19°C° 0 mm 2 mps 756 mmHg 82%
    23:00 +18°C° 0 mm 2 mps 756 mmHg 83%

    Day after tomorrow, 20 June, Wednesday

    Time Temperature Precipitation Wind Pressure Humidity
    00:00 +18°C° 0 mm 2 mps 756 mmHg 85%
    01:00 +17°C° 0 mm 2 mps 756 mmHg 87%
    02:00 +17°C° 0 mm 2 mps 756 mmHg 87%
    03:00 +17°C° 0 mm 2 mps 756 mmHg 87%
    04:00 +16°C° 0 mm 2 mps 756 mmHg 88%
    05:00 +18°C° 0 mm 2 mps 757 mmHg 82%
    06:00 +20°C° 0 mm 2 mps 757 mmHg 76%
    07:00 +21°C° 0 mm 2 mps 757 mmHg 70%
    08:00 +23°C° 0 mm 2 mps 757 mmHg 67%
    09:00 +24°C° 0 mm 2 mps 757 mmHg 63%
    10:00 +25°C° 0 mm 2 mps 757 mmHg 60%
    11:00 +26°C° 0.1 mm 3 mps 756 mmHg 58%
    12:00 +26°C° 0.1 mm 3 mps 756 mmHg 57%
    13:00 +27°C° 0.1 mm 3 mps 756 mmHg 56%
    14:00 +27°C° 0 mm 3 mps 756 mmHg 55%
    15:00 +27°C° 0 mm 3 mps 755 mmHg 55%
    16:00 +27°C° 0 mm 3 mps 755 mmHg 54%
    17:00 +27°C° 0 mm 2 mps 755 mmHg 59%
    18:00 +26°C° 0 mm 2 mps 755 mmHg 64%
    19:00 +25°C° 0 mm 1 mps 755 mmHg 68%
    20:00 +23°C° 0 mm 1 mps 755 mmHg 72%
    21:00 +22°C° 0 mm 1 mps 755 mmHg 76%
    22:00 +21°C° 0 mm 1 mps 755 mmHg 79%
    23:00 +20°C° 0 mm 1 mps 755 mmHg 82%

    21 June, Thursday

    Time Temperature Precipitation Wind Pressure Humidity
    00:00 +20°C° 0 mm 1 mps 755 mmHg 84%
    01:00 +19°C° 0 mm 1 mps 754 mmHg 86%
    02:00 +19°C° 0 mm 1 mps 754 mmHg 86%
    03:00 +19°C° 0 mm 1 mps 754 mmHg 87%
    04:00 +19°C° 0 mm 1 mps 753 mmHg 87%
    05:00 +21°C° 0 mm 1 mps 753 mmHg 81%
    06:00 +23°C° 0 mm 2 mps 753 mmHg 75%
    07:00 +25°C° 0 mm 2 mps 752 mmHg 69%
    08:00 +26°C° 0.1 mm 3 mps 752 mmHg 65%
    09:00 +27°C° 0.1 mm 3 mps 751 mmHg 61%
    10:00 +28°C° 0.1 mm 3 mps 751 mmHg 56%
    11:00 +28°C° 0 mm 3 mps 750 mmHg 55%
    12:00 +29°C° 0 mm 3 mps 749 mmHg 54%
    13:00 +29°C° 0 mm 3 mps 748 mmHg 52%
    14:00 +30°C° 0 mm 3 mps 748 mmHg 52%
    15:00 +30°C° 0 mm 4 mps 747 mmHg 52%
    16:00 +30°C° 0 mm 4 mps 746 mmHg 51%
    17:00 +29°C° 0 mm 3 mps 745 mmHg 56%
    18:00 +28°C° 0 mm 3 mps 745 mmHg 61%
    19:00 +27°C° 0 mm 3 mps 744 mmHg 66%
    20:00 +26°C° 0.6 mm 4 mps 744 mmHg 71%
    21:00 +25°C° 0.6 mm 4 mps 744 mmHg 76%
    22:00 +23°C° 0.6 mm 5 mps 743 mmHg 81%
    23:00 +21°C° 0.3 mm 6 mps 744 mmHg 84%

    22 June, Friday

    Time Temperature Precipitation Wind Pressure Humidity
    00:00 +20°C° 0.3 mm 7 mps 744 mmHg 87%
    01:00 +18°C° 0.3 mm 8 mps 745 mmHg 89%
    02:00 +16°C° 0 mm 8 mps 745 mmHg 87%
    03:00 +14°C° 0 mm 7 mps 746 mmHg 86%
    04:00 +11°C° 0 mm 7 mps 747 mmHg 84%
    05:00 +11°C° 0 mm 7 mps 747 mmHg 78%
    06:00 +12°C° 0 mm 7 mps 748 mmHg 72%
    07:00 +12°C° 0 mm 8 mps 749 mmHg 66%
    08:00 +14°C° 0 mm 7 mps 749 mmHg 63%
    09:00 +14°C° 0 mm 7 mps 749 mmHg 60%
    10:00 +15°C° 0 mm 7 mps 749 mmHg 57%
    11:00 +15°C° 0 mm 7 mps 749 mmHg 55%
    12:00 +16°C° 0 mm 7 mps 749 mmHg 54%
    13:00 +16°C° 0 mm 7 mps 749 mmHg 52%
    14:00 +16°C° 0 mm 7 mps 749 mmHg 51%
    15:00 +16°C° 0 mm 7 mps 749 mmHg 50%
    16:00 +16°C° 0 mm 7 mps 749 mmHg 50%
    17:00 +16°C° 0 mm 6 mps 749 mmHg 54%
    18:00 +15°C° 0 mm 5 mps 749 mmHg 58%
    19:00 +14°C° 0 mm 4 mps 749 mmHg 62%
    20:00 +13°C° 0 mm 4 mps 749 mmHg 64%
    21:00 +12°C° 0 mm 4 mps 749 mmHg 66%
    22:00 +11°C° 0 mm 4 mps 749 mmHg 69%
    23:00 +11°C° 0 mm 4 mps 749 mmHg 71%

    23 June, Saturday

    Time Temperature Precipitation Wind Pressure Humidity
    00:00 +11°C° 0 mm 4 mps 749 mmHg 73%
    01:00 +10°C° 0 mm 4 mps 749 mmHg 75%
    02:00 +10°C° 0 mm 4 mps 749 mmHg 79%
    03:00 +10°C° 0 mm 4 mps 749 mmHg 82%
    04:00 +10°C° 0 mm 4 mps 749 mmHg 85%
    05:00 +10°C° 0.1 mm 5 mps 749 mmHg 83%
    06:00 +12°C° 0.1 mm 5 mps 749 mmHg 81%
    07:00 +13°C° 0.1 mm 6 mps 749 mmHg 79%
    08:00 +13°C° 0.2 mm 6 mps 749 mmHg 77%
    09:00 +12°C° 0.2 mm 7 mps 749 mmHg 75%
    10:00 +14°C° 0.2 mm 7 mps 749 mmHg 73%
    11:00 +14°C° 0.1 mm 7 mps 749 mmHg 70%
    12:00 +14°C° 0.1 mm 7 mps 749 mmHg 67%
    13:00 +14°C° 0.1 mm 7 mps 750 mmHg 64%
    14:00 +14°C° 0.1 mm 7 mps 750 mmHg 64%
    15:00 +15°C° 0.1 mm 7 mps 750 mmHg 64%
    16:00 +15°C° 0.1 mm 7 mps 750 mmHg 64%
    17:00 +14°C° 0.1 mm 6 mps 750 mmHg 67%
    18:00 +14°C° 0.1 mm 5 mps 750 mmHg 70%
    19:00 +13°C° 0.1 mm 5 mps 750 mmHg 74%
    20:00 +12°C° 0 mm 5 mps 751 mmHg 77%
    21:00 +12°C° 0 mm 5 mps 751 mmHg 79%
    22:00 +11°C° 0 mm 4 mps 751 mmHg 82%
    23:00 +11°C° 0 mm 4 mps 752 mmHg 83%
    Show more